Probability
5 6 7 6 5 4 4 3 1 0 1 2 2 4 11 17 19 23 21 8 1 0 0 0 1 2 2 2 2 1 0 1 2 2 3 2 1 0
6 6 6 5 5 4 4 3 2 1 1 2 3 4 7 10 13 19 19 11 4 1 0 0 0 1 1 1 1 0 0 0 1 1 2 1 0 0
5 4 3 3 4 4 3 3 3 3 3 4 4 4 6 9 12 17 19 15 9 3 0 0 0 0 0 0 0 0 0 0 0 0 0 0 0 0
2 2 1 2 3 3 3 3 4 5 5 6 6 6 9 11 14 18 20 19 12 4 0 0 0 0 0 0 0 0 0 0 0 0 0 0 0 0
1 1 1 2 3 3 2 3 4 5 6 8 8 8 8 9 11 14 20 21 13 5 1 0 0 0 0 0 0 0 0 0 0 0 0 0 0 0
0 0 0 2 3 2 0 1 2 4 8 9 8 7 8 8 8 9 14 18 15 8 4 1 0 0 0 0 0 0 0 0 0 0 0 0 0 0
0 0 0 0 1 0 0 0 1 3 7 8 6 5 6 7 7 6 7 11 12 10 7 4 2 1 1 0 0 0 0 0 0 0 0 0 0 0
0 0 0 0 0 0 0 0 1 2 4 4 4 2 3 4 5 5 4 5 6 8 9 8 5 4 2 1 0 0 0 0 0 0 0 0 0 0
0 0 0 0 0 1 0 0 0 1 1 2 2 1 2 3 4 4 3 3 4 7 9 9 8 6 4 1 0 0 0 0 0 0 0 0 0 0
0 0 0 0 0 0 0 0 0 0 0 1 1 1 2 3 3 3 2 3 5 6 8 8 8 7 5 2 1 0 0 0 0 0 0 0 0 0
0 0 0 0 0 0 0 0 0 0 0 0 0 0 1 1 2 2 2 2 3 5 6 6 7 6 4 2 1 0 0 0 0 0 0 0 0 0
0 0 0 0 0 0 0 0 0 0 0 0 0 0 0 1 1 2 2 1 1 3 4 4 4 4 2 1 0 0 0 0 0 0 0 0 0 0
0 0 0 0 0 0 0 0 0 0 0 0 0 0 1 1 1 2 2 1 1 2 3 3 3 3 2 0 0 0 0 0 0 0 0 0 0 0
0 0 0 0 0 0 0 0 0 0 0 0 0 1 2 1 1 1 1 1 2 2 2 3 3 2 2 1 0 0 0 0 0 0 0 0 0 0
0 0 0 0 0 0 0 0 0 0 0 0 0 1 2 2 2 2 1 0 1 1 1 2 1 1 2 1 0 0 0 0 0 0 0 0 0 0
0 0 0 0 0 0 0 0 0 0 0 0 0 1 1 2 3 3 2 0 0 1 1 1 0 1 1 1 0 0 0 0 0 0 0 0 0 0
0 0 0 0 0 0 0 0 0 0 0 0 0 1 1 1 4 5 3 1 0 0 1 1 0 0 0 0 0 0 0 0 0 0 0 0 0 0
0 0 0 0 0 0 0 0 0 0 0 0 0 0 0 0 2 5 5 2 0 0 0 1 0 0 0 0 0 0 0 0 0 0 0 0 0 0
0 0 0 0 0 0 0 0 0 0 0 0 0 0 0 0 1 4 4 2 0 0 0 1 0 0 0 0 0 0 0 0 0 0 0 0 0 0
0 0 0 0 0 0 0 0 0 0 1 0 0 0 0 0 0 2 2 1 0 0 0 0 0 0 0 0 0 0 0 0 0 0 0 0 0 0
0 0 0 0 0 0 0 0 0 0 0 0 0 0 0 0 0 0 0 0 0 0 0 0 0 0 0 0 0 0 0 0 0 0 0 0 0 0
0 0 0 0 0 0 0 0 0 0 0 0 0 0 0 0 0 0 0 0 0 0 0 0 0 0 0 0 0 0 0 0 0 0 0 0 0 0
0 0 0 0 0 0 0 0 0 0 0 0 0 0 0 0 0 0 0 0 0 0 0 0 0 0 0 0 0 0 0 0 0 0 0 0 0 0
Wind_Speed
11 11 10 9 8 8 8 8 8 8 8 6 5 4 3 5 5 8 10 12 16 17 18 18 18 18 18 19 19 18 18 18 17 17 17 17 17 18
9 10 9 9 8 8 8 8 8 9 8 6 4 4 4 5 4 7 9 10 15 16 17 17 17 17 17 18 18 18 17 17 16 16 16 15 15 15
11 11 11 11 9 8 8 8 8 8 9 7 5 4 5 6 4 5 7 8 9 15 16 16 16 16 17 17 17 17 16 16 16 15 14 14 13 13
12 12 12 10 11 10 9 9 8 8 9 9 6 5 6 5 5 5 5 7 7 11 14 14 15 15 15 15 16 15 15 15 14 13 13 12 12 12
12 12 12 12 12 11 11 10 9 9 9 9 8 5 5 5 4 4 4 4 5 7 10 11 12 13 13 13 13 13 13 13 13 12 11 11 10 10
12 12 13 13 13 12 11 11 10 9 9 9 8 6 5 5 4 4 4 3 4 5 6 7 10 11 12 12 12 12 13 12 12 11 11 10 9 9
12 13 13 12 11 10 10 9 10 9 9 8 8 7 6 5 5 4 4 3 3 4 6 7 8 7 8 10 11 12 12 12 12 11 10 10 9 8
12 12 12 12 13 14 14 12 11 11 10 8 8 8 6 6 5 4 4 5 3 4 5 5 6 7 7 7 10 12 12 12 12 11 10 9 9 8
12 11 11 11 11 12 13 15 15 14 12 11 10 9 7 6 6 7 5 5 4 5 5 4 4 5 5 7 12 12 12 12 11 11 10 9 8 8
13 13 12 12 11 10 11 12 13 13 13 13 11 9 7 5 6 6 4 4 3 5 5 4 4 4 5 6 10 11 11 11 11 11 11 10 9 8
12 12 11 11 7 7 10 11 11 10 9 8 7 6 4 4 4 5 6 5 4 4 3 3 5 5 4 5 7 10 10 10 10 11 11 11 11 10
9 9 8 9 5 6 10 10 11 10 8 9 9 8 9 8 7 8 7 6 5 4 4 4 5 6 5 4 5 7 7 8 10 10 11 12 11 7
8 6 4 6 7 8 9 10 8 7 7 8 8 9 9 8 8 8 7 6 6 4 6 5 5 5 5 6 5 5 6 7 8 8 9 10 7 4
8 6 4 3 6 8 8 7 6 6 6 6 7 7 8 8 7 7 7 6 5 5 8 8 5 6 6 6 6 6 6 6 7 8 8 9 5 3
6 6 4 4 6 8 10 8 8 8 7 7 8 7 7 6 6 6 7 6 5 5 7 8 6 6 6 6 7 8 7 6 6 7 8 8 7 7
7 6 8 9 8 6 6 9 9 7 6 7 6 6 6 6 7 7 7 7 6 5 6 7 7 7 5 6 7 8 8 8 8 8 8 7 7 6
6 5 5 5 7 7 7 7 7 7 7 7 6 5 6 7 6 6 7 7 7 7 7 6 5 4 4 5 7 8 8 8 8 9 8 7 6 6
7 6 5 5 6 6 6 6 7 7 7 7 6 6 6 7 7 7 7 7 7 7 7 7 7 6 4 2 3 7 7 8 9 9 8 8 8 7
7 6 5 4 4 5 5 6 6 6 6 7 7 7 7 7 7 8 7 7 7 7 7 8 9 8 8 7 5 6 8 8 9 8 8 7 7 8
5 4 4 4 4 4 4 5 5 6 6 6 6 7 7 7 7 8 8 8 8 7 7 7 8 9 8 7 6 7 8 9 9 9 8 6 5 7
4 3 3 3 3 3 4 4 5 5 6 6 6 7 6 6 7 7 7 8 7 8 8 8 7 7 4 4 5 6 7 7 5 7 9 8 8 8
4 3 3 3 3 3 4 4 5 6 6 6 6 7 7 7 8 8 8 8 8 8 8 7 8 8 7 7 8 8 8 8 5 5 5 3 6 8
3 3 3 3 3 3 4 5 6 6 6 6 6 7 7 7 7 7 8 8 7 8 8 8 8 8 8 8 8 8 11 11 8 8 6 4 4 5
Wind_Direction
254 244 245 254 250 252 254 256 262 267 263 254 248 250 249 244 222 223 228 203 200 203 204 204 202 201 202 202 203 204 206 207 208 209 211 214 216 219
257 260 255 254 251 251 253 253 253 260 268 266 255 266 273 268 229 236 234 204 200 199 201 201 200 199 198 198 198 199 201 202 203 205 205 207 209 213
260 254 249 253 256 252 247 248 248 249 256 261 255 251 263 266 258 245 234 220 207 196 197 198 198 196 195 194 194 195 195 196 198 199 200 202 205 209
260 258 254 248 244 250 250 248 249 252 255 259 260 254 250 255 254 244 236 219 209 187 190 191 191 190 190 190 190 190 190 190 191 191 192 194 198 202
263 260 257 254 250 246 245 246 244 242 245 252 252 249 251 250 252 241 232 223 199 169 171 176 176 176 177 179 179 178 177 177 177 178 180 184 188 193
264 261 259 255 251 249 245 243 244 245 243 245 244 241 238 234 234 226 209 201 186 166 156 154 152 154 158 160 163 163 165 166 166 168 170 173 178 181
264 259 256 256 261 257 257 249 240 237 240 239 236 235 234 222 219 217 204 178 176 168 153 154 154 156 156 156 157 157 157 158 159 161 162 166 170 173
268 264 260 245 238 233 244 256 260 250 244 242 239 234 232 232 221 217 199 179 179 174 161 157 160 157 161 162 150 152 155 156 158 160 161 162 165 168
269 266 264 257 240 239 228 226 235 243 249 251 248 244 233 227 222 218 205 199 182 167 162 154 155 151 146 133 141 149 154 157 161 162 161 161 161 162
264 261 259 262 254 250 246 237 232 226 224 229 237 242 242 233 220 226 216 193 164 165 165 153 153 147 136 132 140 147 154 158 160 160 158 155 153 153
266 263 260 257 248 235 246 244 241 236 222 222 226 224 227 218 215 211 197 188 179 169 170 155 150 138 134 136 138 144 147 152 155 156 154 151 148 148
270 262 251 249 249 224 242 241 239 234 226 205 203 202 207 201 201 218 209 195 182 168 169 160 157 149 139 137 147 154 150 146 150 153 155 157 164 168
281 273 261 197 217 229 245 248 245 246 232 219 213 208 203 202 204 210 211 203 193 179 166 163 164 165 147 141 149 161 162 158 158 155 160 166 182 208
280 280 278 198 216 229 236 238 237 246 239 225 214 210 205 200 198 201 197 200 200 184 168 170 168 173 158 152 148 155 164 168 167 162 160 158 158 117
278 286 276 237 233 229 226 222 220 229 226 222 215 209 205 195 187 184 179 175 175 178 173 178 176 173 175 166 153 156 158 168 174 165 161 167 170 168
258 248 227 227 236 245 210 206 219 225 222 221 216 202 192 189 191 186 181 174 171 169 171 178 179 172 177 164 156 160 163 164 172 171 166 168 173 180
299 267 245 223 217 217 217 213 210 206 214 219 210 200 196 190 189 190 187 180 180 174 168 168 169 169 168 163 164 167 165 163 167 166 168 168 175 181
280 262 251 238 226 214 210 206 205 206 210 208 205 201 200 194 185 185 190 190 183 178 173 165 158 152 150 162 180 171 169 168 163 168 176 173 174 180
259 262 260 248 234 215 209 206 204 204 205 205 202 199 199 196 188 187 190 193 189 182 174 170 173 176 179 179 176 199 180 166 162 170 182 183 178 171
259 267 264 257 240 218 211 205 200 195 195 202 204 197 195 196 191 190 192 194 190 184 179 180 186 190 194 184 166 174 191 177 171 172 175 174 141 121
280 277 273 262 247 222 210 202 195 191 194 199 200 196 200 201 197 194 194 189 196 190 189 189 185 175 171 156 155 159 171 184 178 174 170 165 161 167
298 285 270 258 249 229 208 199 197 194 193 202 201 195 197 202 199 197 194 190 195 198 195 182 166 174 185 187 179 169 163 161 140 102 108 132 175 185
296 286 271 251 237 229 221 209 204 202 200 203 200 197 199 198 197 197 198 198 195 196 193 182 175 182 190 189 180 171 164 163 166 171 160 76 64 89